Location: Althorst
(53.6379°N, 10.7715°E)
Time: 10:53:49
(UTC+00:00)

Okean-O - Pass Details

Date: 10 December 2019
Orbit: 639 x 641 km, 98.2° (Epoch: 25 January)

Event Time Altitude Azimuth Distance (km) Brightness Sun altitude
Rises 15:35:52 0° 124° (SE) 2,942 5.8 -5.5°
Reaches altitude 10° 15:38:25 10° 110° (ESE) 2,037 4.9 -5.9°
Maximum altitude 15:41:54 23° 58° (ENE) 1,365 3.7 -6.3°
Drops below altitude 10° 15:45:24 10° 7° (N) 2,048 4.9 -6.7°
Sets 15:47:57 0° 353° (N) 2,962 5.8 -7.1°
